Simultaneous Nadir Overpasses (SNOs) Predictions

Prediction of SNOs between LANDSAT-8 and METOP-B Satellite Orbit:

Table of predicted SNOs for the next 14.0 days since TLE Epoch: 7/16/2022
Index Date (LANDSAT-8) Time (LANDSAT-8) Lat,Lon (LANDSAT-8) SZA (LANDSAT-8 ) Date (METOP-B) Time (METOP-B) Lat,Lon (METOP-B) SZA (METOP-B ) Distance(km) Time Diff (sec)
1 07/16/2022 09:16:40 -81.17, -98.37 118.09 07/16/2022 09:16:07 -81.16, -98.55 118.13 3.07 33
2 07/16/2022 10:06:06 81.18, 69.39 61.94 07/16/2022 10:06:46 81.18, 69.33 61.95 1.05 40
3 07/19/2022 04:50:58 -81.17, -31.93 117.61 07/19/2022 04:50:28 -81.17, -31.83 117.61 1.66 30
4 07/19/2022 05:40:24 81.17, 135.80 62.42 07/19/2022 05:41:08 81.17, 135.64 62.42 2.69 44
5 07/22/2022 00:25:15 -81.16, 34.41 117.10 07/22/2022 00:24:49 -81.17, 34.45 117.10 0.84 26
6 07/22/2022 01:14:40 81.19,-157.52 62.98 07/22/2022 01:15:28 81.18,-157.71 62.98 3.28 48
7 07/24/2022 19:59:32 -81.17, 101.01 116.50 07/24/2022 19:59:10 -81.17, 101.07 116.50 1.04 22
8 07/24/2022 20:48:58 81.18, -91.32 63.52 07/24/2022 20:49:50 81.18, -91.48 63.53 2.84 52
9 07/27/2022 15:33:49 -81.18, 167.50 115.87 07/27/2022 15:33:31 -81.18, 167.63 115.86 2.29 18



Historial Predications of SNOs between LANDSAT-8 and METOP-B
